Regional Weather Roundup
Issued by NWS

Home | Current Version | Previous Version | Graphics & Text | Print | Product List | Glossary On
Versions: 1 2 3 4 5 6 7 8 9 10 11 12 13 14 15 16 17 18 19 20 21 22 23 24 25 26 27 28 29 30 31 32 33 34 35 36 37 38 39 40 41 42 43 44 45 46 47 48 49 50
000
ASUS43 KIND 021609
RWRIN

WEATHER ROUNDUP FOR INDIANA
NATIONAL WEATHER SERVICE INDIANAPOLIS IN
1100 AM EST MON MAR 02 2015

NOTE: "FAIR" INDICATES FEW OR NO CLOUDS BELOW 12,000 FEET WITH NO
SIGNIFICANT WEATHER AND/OR OBSTRUCTIONS TO VISIBILITY.

* - STATION DOES NOT REPORT WEATHER SUCH AS PRECIPITATION OR FOG.

+ - STATION NOT QUALITY CONTROLLED BY THE NATIONAL WEATHER SERVICE.
    USE DATA WITH CAUTION...ESPECIALLY DEWPOINT AND RELATIVE
    HUMIDITY OBSERVATIONS.

INZ001>003-010>013-019-020-021700-
NORTHWEST INDIANA

CITY           SKY/WX    TMP DP  RH WIND       PRES   REMARKS
GARY /AIRPORT/ MOSUNNY   27  10  50 N8        30.52S WCI  18
KNOX *+          N/A     21   0  39 CALM      30.51S
LA PORTE +     SUNNY     26  16  64 NW5       30.51S WCI  21
MICHIGAN CITY+ SUNNY     25  12  58 NW6       30.52R WCI  18
MONTICELLO +   SUNNY     17  10  76 CALM      30.52S
RENSSELAER +   SUNNY     19  16  86 CALM      30.52S
VALPARAISO     SUNNY     25  13  60 N6        30.51R WCI  18

$$

LMZ046-743>745-021700-
SOUTHERN LAKE MICHIGAN

STATION/POSITION TIME  TEMP WIND        PRES
                       AIR  DIR/SP/G
                 (UTC) (F)  (DEG/KT/KT) (MB)
MICHIGAN CITY    1600   22  250/  5/  7   N/A

$$

INZ004-005-014>016-021>024-021700-
NORTH CENTRAL INDIANA

CITY           SKY/WX    TMP DP  RH WIND       PRES   REMARKS
ELKHART        MOSUNNY   21  12  68 W7        30.50R WCI  13
GOSHEN         SUNNY     19  13  77 CALM      30.49S HAZE
LOGANSPORT +   SUNNY     16  12  86 CALM      30.53S
PERU/GRISSOM   FAIR      16  10  77 W3        30.51R
ROCHESTER +    SUNNY     21  14  73 SW5       30.53R WCI  15
SOUTH BEND     MOSUNNY   25  15  66 W9        30.50S WCI  15
WARSAW +       SUNNY     23  14  68 W5        30.51R WCI  17

$$

INZ006>009-017-018-025>027-021700-
NORTHEAST INDIANA

CITY           SKY/WX    TMP DP  RH WIND       PRES   REMARKS
ANGOLA *+      SUNNY     25  16  68 W8        30.47R WCI  16
AUBURN +       SUNNY     23  14  68 W7        30.50  WCI  15
FORT WAYNE     MOSUNNY   21  13  71 W7        30.51R WCI  12
HUNTINGTON +   SUNNY     21  10  60 W5        30.51S WCI  15

$$

INZ028-029-035-036-043>045-051>053-021700-
WEST CENTRAL INDIANA

CITY           SKY/WX    TMP DP  RH WIND       PRES   REMARKS
CRAWFORDSVL +  SUNNY     19   8  63 CALM      30.53S
GREENCASTLE +  SUNNY     23  10  58 NE5       30.54R WCI  17
LAFAYETTE      SUNNY     20  12  71 CALM      30.54R
TERRE HAUTE    SUNNY     26  16  65 CALM      30.56R

$$

INZ030>032-037>040-046>048-054>057-064-065-021700-
CENTRAL INDIANA

CITY           SKY/WX    TMP DP  RH WIND       PRES   REMARKS
ANDERSON       SUNNY     21  10  63 CALM      30.53S
CP ATTERBURY + MOSUNNY   28  16  59 E6        30.55S WCI  22
COLUMBUS       SUNNY     25  10  54 CALM      30.56S
FRANKFORT +    SUNNY     18  12  77 CALM      30.53S
GREENWOOD *+   MOSUNNY   23  10  58 CALM      30.53F
INDIANAPOLIS   PTSUNNY   21  14  74 CALM      30.53S
-EAGLE CREEK   SUNNY     23  13  65 CALM      30.53S
KOKOMO *+      SUNNY     19  12  73 W6        30.52S WCI  11
MARION +       SUNNY     16   9  72 CALM      30.53R
MT COMFORT *+  SUNNY     25   5  42 CALM      30.53S
SHELBYVILLE    MOSUNNY   25  13  60 N3        30.54R
ZIONSVILLE +   SUNNY     22  11  63 CALM      30.52S

$$

INZ033-034-041-042-049-050-058-059-021700-
EAST CENTRAL INDIANA

CITY           SKY/WX    TMP DP  RH WIND       PRES   REMARKS
MUNCIE         SUNNY     21  12  68 W5        30.52S WCI  15

$$

INZ060-061-067>069-081>083-085>088-021700-
SOUTHWEST INDIANA

CITY           SKY/WX    TMP DP  RH WIND       PRES   REMARKS
EVANSVILLE     MOSUNNY   32  17  54 NE12      30.56S WCI  23
HUNTINGBURG *+ SUNNY     28  18  64 NE10      30.55F WCI  19
WASHINGTON +   MOSUNNY   26  12  54 CALM      30.57S

$$

INZ062-063-066-070>080-084-089>092-021700-
SOUTH CENTRAL AND SOUTHEAST INDIANA

CITY           SKY/WX    TMP DP  RH WIND       PRES   REMARKS
BLOOMINGTON    SUNNY     28  15  58 NE6       30.53R WCI  22
NORTH VERNON + SUNNY     27  14  59 E6        30.55S WCI  20
SEYMOUR +      SUNNY     30  14  51 CALM      30.56S

$$




USA.gov is the U.S. government's official web portal to all federal, state and local government web resources and services.